Simultaneous Nadir Overpasses (SNOs) Predictions

Prediction of SNOs between GOES-16 and AQUA Satellite Orbit:

Table of predicted SNOs for the next 14.0 days since TLE Epoch: 3/13/2020
Index Date Time (GOES-16) GOES-16 Lat,Lon AQUA Lat,Lon Distance(km) Time Diff (sec)
1 03/14/2020 18:29:29 -0.03, -75.19 0.40, -73.15 232.15 80
2 03/15/2020 06:50:45 0.03, -75.18 0.71, -78.30 355.48 80
3 03/17/2020 06:38:35 0.03, -75.19 0.04, -75.36 18.74 80
4 03/19/2020 06:23:44 0.03, -75.20 -0.57, -72.40 318.89 80
5 03/19/2020 18:45:08 -0.03, -75.21 -0.52, -77.59 269.75 80
6 03/21/2020 18:35:37 -0.03, -75.24 0.10, -74.63 68.86 80
7 03/23/2020 18:23:26 -0.03, -75.27 0.72, -71.68 408.25 80
8 03/24/2020 06:44:43 0.03, -75.27 0.34, -76.84 178.30 80
9 03/26/2020 06:29:52 0.03, -75.31 -0.29, -73.89 161.82 80
10 03/26/2020 18:51:14 -0.03, -75.32 -0.85, -79.07 426.54 80




NCC Satellite Simultaneous Nadir Overpasses (SNOs) Prediction Service
